STARLINK-1180 (45076 NORAD) Tracking and Keplerian Element Data

This shows tracking and keplerian element data for the satellite.

Feedback or suggestion? Click here.




ElementValue
Catalog45076
NameSTARLINK-1180
Epoch Orbit177
Epoch Day52.91667824
Epoch Year2020
RAAN119.4671
Inclination52.9963
Eccentricity0.0003071
Argument of Perigee314.7625
Mean Anonmoly211.8625
Mean Motion15.73157145
Decay Rate0.00219376
L11 45076U 20006AJ 20052.91667824 .00219376 00000-0 15293-2 0 9992
L22 45076 52.9963 119.4671 0003071 314.7625 211.8625 15.73157145 1775

Live tracking and technical data element details for STARLINK-1180 (NORAD 45076). STARLINK-1180 can be tracked NOW for your location showing map with azimuth and elevation plus other details from your city location.

Track the satellite on the map from your city or location and see movement details for azimuth, elevation, latitude, longitude, range, height, and movement on the map or in text.







IsCatalogInMostPopularTable: catalog: 45076, numindb: 4
Update: records affected: 1



GetName: 45076 STARLINK-1180

Hit Count: updated at: Mon, 24 Feb 2020 18:44:55 GMT